Weather History for Cut Bank, MT

Change the Weather History Date:

Monday, December 31, 2012

  Actual Average Record
Temperature  
Mean Temperature 22 °F 21 °F  
Max Temperature 30 °F 32 °F 54 °F (1926)
Min Temperature 14 °F 11 °F -36 °F (1923)
Degree Days  
Heating Degree Days 43 44  
Month to date heating degree days 1385 1330  
Since 1 July heating degree days 3525 3590  
Cooling Degree Days 0 0  
Month to date cooling degree days 0 0  
Year to date cooling degree days 210 162  
Moisture  
Dew Point 15 °F    
Average Humidity 70    
Maximum Humidity 77    
Minimum Humidity 63    
Precipitation  
Precipitation 0.00 in 0.01 in 0.24 in (1969)
Month to date precipitation 0.43 0.22  
Year to date precipitation 9.28 10.90  
Snow  
Snow 0.00 in - - ()
Snow Depth 3.00 in    
Sea Level Pressure  
Sea Level Pressure 30.08 in    
Wind  
Wind Speed 15 mph (West)    
Max Wind Speed 26 mph    
Max Gust Speed 32 mph    
Visibility 10 miles    
Events      
T = Trace of Precipitation, MM = Missing Value Source: NWS Daily Summary

Daily Weather History Graph

Daily Weather History Graph

Search for Another Location

Airport:

Trip Planner

Search our weather history database for the weather conditions in past years. The results will help you decide how hot, cold, wet, or windy it might be!

Date:

Astronomy

Dec. 31, 2012 Rise Set
Actual Time 8:21 AM MST 4:43 PM MST
Civil Twilight 7:45 AM MST 5:20 PM MST
Nautical Twilight 7:05 AM MST 6:00 PM MST
Astronomical Twilight 6:26 AM MST 6:38 PM MST
Moon 8:37 PM MST (12/31) 9:48 AM MST (12/31)
Length of Visible Light 9h 35m
Length of Day
8h 22m
Waning Gibbous, 90% of the Moon is Illuminated
Dec 31
Waning Gibbous
Jan 4
Last Quarter
Jan 11
New
Jan 18
First Quarter
Jan 26
Full

Hourly Weather History & Observations

Time (MST) Temp. Windchill Dew Point Humidity Pressure Visibility Wind Dir Wind Speed Gust Speed Precip Events Conditions
12:56 AM 17.1 °F 6.6 °F 9.0 °F 71% 30.09 in 10.0 mi West 8.1 mph - N/A   Clear
1:56 AM 19.9 °F 6.2 °F 12.0 °F 71% 30.08 in 10.0 mi West 15.0 mph 21.9 mph N/A   Clear
2:56 AM 19.0 °F 5.6 °F 10.9 °F 71% 30.09 in 10.0 mi WNW 13.8 mph - N/A   Clear
3:56 AM 19.0 °F 5.0 °F 10.0 °F 68% 30.09 in 10.0 mi WNW 15.0 mph - N/A   Clear
4:56 AM 19.0 °F 9.0 °F 10.0 °F 68% 30.09 in 10.0 mi West 8.1 mph - N/A   Clear
5:56 AM 19.9 °F 5.2 °F 10.9 °F 68% 30.08 in 10.0 mi West 17.3 mph - N/A   Clear
6:56 AM 21.0 °F 6.2 °F 12.0 °F 68% 30.08 in 10.0 mi West 18.4 mph - N/A   Clear
7:56 AM 18.0 °F 6.9 °F 10.9 °F 74% 30.09 in 10.0 mi West 9.2 mph - N/A   Partly Cloudy
8:56 AM 25.0 °F 12.6 °F 16.0 °F 69% 30.08 in 10.0 mi West 15.0 mph - N/A   Overcast
9:56 AM 26.1 °F 13.1 °F 17.1 °F 69% 30.09 in 10.0 mi West 17.3 mph - N/A   Overcast
10:56 AM 28.0 °F 14.6 °F 18.0 °F 66% 30.08 in 10.0 mi West 20.7 mph - N/A   Overcast
11:56 AM 28.9 °F 15.4 °F 19.0 °F 67% 30.08 in 10.0 mi West 21.9 mph - N/A   Overcast
12:56 PM 30.0 °F 16.6 °F 19.0 °F 64% 30.07 in 10.0 mi West 23.0 mph - N/A   Overcast
1:56 PM 30.0 °F 20.0 °F 19.9 °F 66% 30.06 in 10.0 mi West 12.7 mph - N/A   Mostly Cloudy
2:56 PM 28.9 °F 18.2 °F 19.9 °F 69% 30.07 in 10.0 mi West 13.8 mph - N/A   Clear
3:56 PM 28.4 °F 19.1 °F 19.4 °F 69% 29.97 in 10.0 mi WNW 10.4 mph - N/A   Clear
4:56 PM 25.0 °F 13.6 °F 17.1 °F 72% 30.12 in 10.0 mi West 12.7 mph - N/A   Scattered Clouds
5:56 PM 21.2 °F 8.3 °F 14.0 °F 74% 30.01 in 10.0 mi West 13.8 mph - N/A   Scattered Clouds
6:56 PM 21.9 °F 9.8 °F 16.0 °F 78% 30.15 in 10.0 mi WNW 12.7 mph - N/A   Overcast
7:56 PM 24.1 °F 12.0 °F 16.0 °F 71% 30.16 in 10.0 mi West 13.8 mph - N/A   Overcast
8:56 PM 25.0 °F 13.1 °F 17.1 °F 72% 30.16 in 10.0 mi West 13.8 mph - N/A   Overcast
9:56 PM 25.0 °F 14.2 °F 18.0 °F 75% 30.15 in 10.0 mi West 11.5 mph - N/A   Mostly Cloudy
10:56 PM 28.4 °F 16.6 °F 19.4 °F 69% 30.04 in 10.0 mi WNW 16.1 mph - N/A   Overcast
11:56 PM 26.6 °F 14.3 °F 17.6 °F 69% 30.03 in 10.0 mi West 16.1 mph - N/A   Overcast